Wind_Speed
37 33 36 34 36 38 39 37 39 40 41 42 41 42 41 43 43 42 41 41 30 29 32 34 36 38 38 35 36 39 39 41 42
25 34 33 36 36 35 37 38 38 38 39 41 40 39 40 42 41 40 36 29 29 32 33 36 38 39 38 37 40 41 43 42 43
33 38 32 32 36 38 38 37 39 39 36 35 37 36 36 39 38 32 29 29 31 34 35 38 39 40 37 40 43 45 47 44 45
37 38 40 39 39 38 37 39 42 40 37 34 35 36 36 38 36 31 30 32 34 36 38 40 41 39 40 42 45 46 48 47 46
32 40 41 36 37 43 44 44 46 40 38 36 37 38 37 37 36 34 34 36 37 39 40 41 42 42 43 46 48 50 52 51 50
34 36 41 45 46 49 48 48 46 44 42 40 40 41 39 37 36 36 37 39 41 42 42 43 44 45 47 49 51 56 56 54 54
39 42 42 44 46 44 47 50 48 47 44 43 45 42 41 40 38 39 39 42 44 45 46 46 47 49 51 52 55 58 58 58 57
36 38 39 41 42 45 49 49 48 47 46 47 44 42 42 40 40 40 42 45 48 50 51 51 50 51 54 56 57 60 61 60 59
41 41 42 45 45 47 47 48 49 49 49 44 42 40 38 39 42 45 47 50 53 54 56 56 55 56 59 59 61 64 64 64 63
48 49 49 49 48 50 49 48 50 51 47 45 41 39 41 43 46 50 53 55 58 60 59 59 61 62 64 66 67 67 68 67 67
48 48 50 50 51 50 50 50 51 53 48 46 43 44 45 48 50 53 56 58 59 61 64 66 67 70 72 73 74 75 74 72 72
44 48 50 52 51 53 54 53 52 53 51 50 48 49 51 54 55 57 60 62 64 66 68 71 74 76 77 77 78 79 77 78 77
49 52 52 54 53 54 55 55 54 55 54 54 55 56 58 61 63 65 66 68 71 73 75 76 79 80 81 81 82 82 83 84 83
47 50 52 53 55 56 55 57 57 58 56 55 60 62 65 68 70 72 74 75 77 79 82 85 85 85 86 87 87 87 88 87 87
47 50 52 56 58 59 59 59 60 58 57 59 62 65 70 74 77 79 80 83 85 87 88 90 91 91 91 91 91 91 92 92 94
47 51 55 58 59 60 61 62 61 62 62 63 66 70 74 78 80 84 88 90 92 93 94 95 97 98 100 99 100 99 99 100 102
51 54 57 59 61 61 60 61 63 67 71 72 74 75 78 83 86 89 91 94 97 100 102 103 104 105 106 108 109 109 109 109 109
54 54 53 56 58 61 64 67 69 70 76 80 81 81 83 84 89 93 97 100 104 107 110 111 114 116 116 116 115 116 117 117 117
53 56 59 62 64 66 69 72 75 77 80 85 91 94 94 93 89 97 101 105 108 110 113 115 118 123 125 127 125 124 123 124 125
58 61 64 67 69 71 75 78 81 85 88 91 94 98 104 109 110 102 108 111 116 118 120 121 122 125 128 131 131 130 129 128 127
Wind_Direction
255 263 264 271 272 274 279 286 289 286 284 283 284 284 285 283 286 284 283 282 278 281 286 289 290 291 294 298 305 313 320 320 320
251 258 263 267 268 278 284 287 289 290 287 285 286 284 284 284 286 284 281 276 279 284 286 290 290 291 293 297 307 313 316 317 320
245 254 270 273 278 287 283 285 285 290 292 288 286 285 282 284 282 280 279 278 281 283 286 288 289 288 293 303 309 307 311 316 317
244 254 268 271 274 280 282 285 288 292 291 288 287 283 282 281 277 270 271 276 279 282 284 285 287 291 298 303 304 308 311 313 314
257 259 265 267 273 285 286 288 291 290 292 288 286 284 279 277 271 268 271 273 278 284 286 287 291 295 296 298 302 307 308 309 311
250 256 263 271 281 282 286 290 290 294 291 288 287 286 279 276 268 267 270 275 282 284 288 288 290 292 293 295 301 304 303 306 304
253 262 267 273 276 283 288 291 289 293 292 290 291 286 278 276 266 265 271 280 282 286 287 291 290 292 294 296 298 300 299 302 300
259 265 268 277 282 286 287 290 291 291 292 291 287 283 280 276 274 275 276 280 282 284 286 288 287 289 291 293 295 298 298 299 297
254 268 273 275 281 285 287 289 291 292 292 286 283 280 278 277 276 277 279 281 283 285 287 286 286 285 288 292 293 295 296 296 297
255 267 269 275 279 283 284 286 290 293 291 287 279 275 275 277 279 280 282 284 286 287 287 286 285 285 286 288 291 293 294 294 293
259 266 268 273 279 282 286 290 293 295 293 287 277 277 278 280 282 283 284 286 287 289 289 289 287 286 287 288 289 290 291 293 292
263 266 269 274 278 283 287 290 291 294 289 288 279 278 280 281 283 285 285 287 288 290 290 291 291 291 290 289 289 290 291 292 293
264 269 273 276 279 282 287 291 291 293 286 286 284 282 282 283 283 284 287 289 289 291 292 292 291 291 291 290 290 291 291 292 292
269 273 278 278 280 286 286 288 289 290 285 285 284 283 283 283 284 285 287 288 289 289 289 290 290 290 290 291 291 291 291 290 290
272 274 277 282 285 287 287 289 291 288 284 283 284 284 283 284 284 285 286 286 287 288 290 290 291 290 290 289 288 288 288 288 288
278 281 281 283 285 287 287 289 289 287 284 282 284 285 286 286 287 288 289 289 289 290 290 291 290 290 290 289 288 287 287 287 287
283 284 284 286 288 289 290 289 289 289 288 287 287 286 288 289 290 290 290 290 290 290 290 289 288 287 287 288 288 288 288 288 288
285 287 289 291 292 292 291 291 289 289 290 290 288 286 287 286 287 287 288 288 288 289 289 289 289 289 288 287 286 287 288 288 288
288 291 293 293 292 292 292 292 292 291 290 290 290 290 287 284 282 284 284 285 285 285 285 286 287 287 288 288 288 288 288 288 288
291 292 292 292 293 293 291 291 291 291 290 289 288 289 289 288 288 286 284 284 284 285 285 286 286 286 286 287 287 287 288 287 288
Height
10854 10857 10857 10858 10858 10857 10856 10855 10853 10852 10850 10848 10846 10845 10842 10839 10838 10835 10833 10831 10830 10829 10828 10826 10825 10822 10820 10818 10815 10812 10808 10804 10800
10848 10851 10851 10851 10851 10850 10849 10847 10845 10843 10841 10839 10837 10834 10832 10830 10828 10826 10824 10823 10822 10822 10820 10818 10815 10812 10811 10809 10806 10801 10798 10795 10791
10843 10844 10844 10844 10843 10842 10840 10838 10836 10835 10832 10829 10827 10826 10824 10822 10820 10818 10816 10816 10815 10813 10811 10809 10806 10804 10801 10798 10795 10792 10789 10786 10782
10836 10838 10837 10836 10834 10833 10832 10830 10829 10827 10824 10821 10819 10816 10815 10812 10811 10809 10808 10807 10806 10804 10801 10799 10796 10794 10791 10788 10786 10783 10780 10776 10773
10829 10829 10828 10828 10826 10825 10823 10822 10820 10818 10816 10813 10811 10808 10806 10804 10801 10800 10799 10797 10796 10794 10792 10790 10787 10784 10782 10779 10776 10773 10770 10766 10763
10822 10822 10821 10820 10818 10817 10815 10813 10811 10809 10807 10805 10802 10799 10797 10795 10794 10792 10791 10790 10788 10786 10783 10781 10778 10775 10771 10769 10766 10763 10759 10756 10753
10815 10815 10814 10812 10811 10809 10807 10805 10802 10800 10798 10796 10793 10790 10787 10785 10784 10784 10783 10782 10779 10776 10774 10771 10767 10764 10761 10758 10755 10752 10748 10745 10741
10807 10806 10804 10804 10803 10801 10799 10796 10794 10791 10788 10785 10782 10780 10778 10776 10775 10774 10773 10770 10768 10765 10762 10758 10755 10753 10749 10746 10743 10739 10736 10732 10729
10799 10797 10795 10795 10794 10793 10790 10787 10784 10781 10778 10775 10773 10771 10769 10767 10765 10763 10761 10759 10756 10753 10749 10746 10743 10740 10737 10734 10730 10727 10723 10720 10716
10789 10788 10787 10787 10787 10784 10781 10778 10775 10772 10769 10766 10764 10762 10759 10758 10755 10752 10749 10747 10743 10739 10736 10734 10730 10727 10723 10719 10716 10713 10709 10706 10702
10782 10780 10779 10779 10778 10774 10771 10769 10766 10762 10759 10756 10755 10752 10749 10746 10744 10741 10736 10732 10730 10726 10721 10718 10715 10712 10708 10703 10699 10697 10694 10690 10687
10773 10771 10771 10769 10768 10765 10763 10760 10756 10751 10748 10745 10743 10740 10737 10733 10729 10726 10722 10718 10714 10711 10707 10703 10698 10694 10690 10687 10683 10679 10675 10672 10669
10764 10762 10760 10759 10756 10755 10753 10749 10745 10741 10737 10735 10731 10727 10724 10720 10716 10712 10708 10704 10699 10693 10689 10687 10682 10677 10671 10667 10664 10660 10654 10651 10648
10755 10753 10750 10747 10745 10743 10740 10735 10732 10727 10724 10724 10718 10714 10710 10705 10701 10696 10692 10687 10682 10677 10672 10665 10662 10657 10652 10647 10643 10639 10634 10630 10627
10746 10743 10739 10736 10732 10729 10726 10722 10718 10714 10712 10710 10706 10701 10695 10689 10683 10679 10674 10668 10663 10658 10652 10645 10638 10632 10629 10625 10621 10617 10612 10608 10605
10735 10732 10728 10724 10719 10715 10712 10707 10702 10696 10696 10695 10691 10686 10680 10673 10668 10660 10652 10645 10639 10633 10626 10620 10615 10609 10600 10597 10594 10591 10588 10584 10579
10723 10719 10715 10711 10706 10702 10697 10693 10688 10682 10676 10676 10674 10675 10665 10654 10647 10638 10631 10623 10615 10608 10601 10594 10588 10582 10577 10571 10564 10560 10558 10556 10553
10711 10707 10702 10697 10693 10687 10682 10678 10673 10670 10658 10651 10650 10650 10647 10643 10630 10622 10612 10602 10593 10583 10573 10566 10556 10547 10544 10541 10539 10532 10526 10522 10520
10697 10692 10688 10683 10677 10673 10666 10660 10655 10651 10646 10635 10620 10613 10613 10614 10625 10607 10595 10585 10575 10566 10557 10547 10535 10521 10512 10504 10504 10501 10495 10490 10484
10682 10678 10673 10667 10662 10657 10652 10644 10636 10629 10622 10614 10605 10594 10580 10567 10564 10586 10571 10561 10548 10540 10532 10521 10513 10500 10486 10475 10469 10464 10460 10455 10450